Location: Newark
(42.8481°N, 0.4872°E)
Time: 07:27:30
(UTC+00:00)

SR - Pass Details

Date: 03 November 2020
Orbit: 579 x 876 km, 66.7° (Epoch: 29 November)

Event Time Altitude Azimuth Distance (km) Brightness Sun altitude
Rises 11:15:15 0° 306° (NW) 3,167 ? 31.6°
Reaches altitude 10° 11:19:15 10° 275° (W) 2,315 ? 31.6°
Maximum altitude 11:21:02 12° 256° (WSW) 2,226 ? 31.7°
Drops below altitude 10° 11:22:52 10° 236° (SW) 2,373 ? 31.7°
Sets 11:27:08 0° 205° (SSW) 3,364 ? 31.8°
